Date String (YYYY-MM-DD hh:mm:ss) UTC,Instrument flags,Ambient pressure (hPa),Sample flow (lpm),Bypass flow (lpm),Sample temperature (°C),Ambient temperature (°C),ASC tube jacket temperature (°C),LED temperature (°C),Box temperature (°C),Sample RH (%),Span deviation,Mass concentration (μg/m³),Mass concentration (μg/m³),Mass concentration (μg/m³)
DateTimeUTC,F1_M11,P_M11,Q1_M11,Q2_M11,T1_M11,T2_M11,T3_M11,T4_M11,T5_M11,U1_M11,ZSPAN_M11,X0_M11,X2_M11,X1_M11
2021-10-25 20:00:00,,0819.3,5.00,0.00,30.6,29.9,00.0,39.5,32.3,13.0,0000.0,0019.27,0004.97,0003.62
2021-10-25 20:01:00,,0819.2,5.00,0.00,30.6,29.9,00.0,39.5,32.3,13.0,0000.0,0020.76,0004.95,0003.60
2021-10-25 20:02:00,,0819.2,4.98,0.00,30.6,29.9,00.0,39.5,32.4,13.0,0000.0,0020.87,0004.94,0003.60
2021-10-25 20:03:00,,0819.3,5.01,0.00,30.6,29.9,00.0,39.5,32.4,13.0,0000.0,0019.72,0004.95,0003.59
2021-10-25 20:04:00,,0819.3,5.00,0.00,30.6,30.0,00.0,39.6,32.4,13.0,0000.0,0019.23,0004.97,0003.59
2021-10-25 20:05:00,,0819.2,5.00,0.00,30.6,30.0,00.0,39.6,32.4,13.0,0000.0,0019.43,0004.94,0003.56
2021-10-25 20:06:00,,0819.3,5.00,0.00,30.7,30.0,00.0,39.6,32.4,13.0,0000.0,0021.32,0004.87,0003.54
2021-10-25 20:07:00,,0819.2,5.01,0.00,30.7,30.0,00.0,39.6,32.4,12.9,0000.0,0021.64,0004.88,0003.52
2021-10-25 20:08:00,,0819.3,4.99,0.00,30.7,30.0,00.0,39.6,32.5,12.8,0000.0,0021.35,0004.94,0003.52
2021-10-25 20:09:00,,0819.3,5.02,0.00,30.7,30.0,00.0,39.7,32.5,12.8,0000.0,0020.32,0004.88,0003.51
2021-10-25 20:10:00,,0819.3,5.00,0.00,30.7,30.1,00.0,39.7,32.5,12.9,0000.0,0020.05,0004.80,0003.50
2021-10-25 20:11:00,,0819.3,4.99,0.00,30.7,30.1,00.0,39.7,32.5,12.8,0000.0,0020.59,0004.74,0003.48
2021-10-25 20:12:00,,0819.2,5.00,0.00,30.8,30.1,00.0,39.7,32.5,13.0,0000.0,0020.08,0004.75,0003.47
2021-10-25 20:13:00,,0819.2,5.01,0.00,30.8,30.1,00.0,39.7,32.5,12.9,0000.0,0020.44,0004.82,0003.45
2021-10-25 20:14:00,,0819.1,4.99,0.00,30.8,30.1,00.0,39.7,32.6,12.9,0000.0,0021.24,0004.89,0003.44
2021-10-25 20:15:00,,0819.2,4.99,0.00,30.8,30.2,00.0,39.8,32.6,12.9,0000.0,0022.69,0004.92,0003.46
2021-10-25 20:16:00,,0819.1,5.00,0.00,30.8,30.2,00.0,39.8,32.6,12.8,0000.0,0022.57,0005.00,0003.50
2021-10-25 20:17:00,,0819.0,5.00,0.00,30.8,30.2,00.0,39.8,32.6,12.8,0000.0,0021.78,0005.10,0003.56
2021-10-25 20:18:00,,0819.0,4.98,0.00,30.9,30.2,00.0,39.8,32.6,12.9,0000.0,0021.35,0005.19,0003.59
2021-10-25 20:19:00,,0819.0,5.01,0.00,30.9,30.2,00.0,39.8,32.6,13.0,0000.0,0021.60,0005.25,0003.65
2021-10-25 20:20:00,,0819.0,5.00,0.00,30.9,30.2,00.0,39.8,32.6,12.8,0000.0,0023.67,0005.41,0003.72
2021-10-25 20:21:00,,0819.0,4.99,0.00,30.9,30.2,00.0,39.9,32.7,12.8,0000.0,0024.83,0005.58,0003.82
2021-10-25 20:22:00,,0819.0,5.01,0.00,30.9,30.3,00.0,39.9,32.7,12.8,0000.0,0024.52,0005.73,0003.91
2021-10-25 20:23:00,,0819.0,5.01,0.00,30.9,30.2,00.0,39.9,32.7,12.8,0000.0,0024.60,0005.82,0003.98
2021-10-25 20:24:00,,0819.0,4.99,0.00,30.9,30.2,00.0,39.9,32.7,12.8,0000.0,0024.39,0005.90,0004.07
2021-10-25 20:25:00,,0819.0,5.00,0.00,30.9,30.3,00.0,39.9,32.7,12.8,0000.0,0024.84,0005.93,0004.15
2021-10-25 20:26:00,,0818.9,5.01,0.00,31.0,30.3,00.0,39.9,32.7,12.8,0000.0,0024.93,0005.98,0004.21
2021-10-25 20:27:00,,0819.0,5.01,0.00,31.0,30.2,00.0,39.9,32.7,12.7,0000.0,0024.39,0006.04,0004.25
2021-10-25 20:28:00,,0819.0,5.00,0.00,30.9,29.1,00.0,39.9,32.5,12.7,0000.0,0024.33,0006.01,0004.26
2021-10-25 20:29:00,,0818.9,4.99,0.00,30.8,27.2,00.0,39.9,32.2,12.7,0000.0,0025.29,0006.05,0004.29
2021-10-25 20:30:00,,0818.9,5.00,0.00,30.7,26.8,00.0,39.9,32.0,12.8,0000.0,0026.69,0006.05,0004.31
2021-10-25 20:31:00,,0819.0,5.01,0.00,30.6,27.2,00.0,39.8,32.0,12.9,0000.0,0025.33,0006.00,0004.31
2021-10-25 20:32:00,,0818.9,5.02,0.00,30.5,27.6,00.0,39.7,32.0,12.9,0000.0,0024.14,0005.98,0004.30
2021-10-25 20:33:00,,0818.9,5.00,0.00,30.5,28.0,00.0,39.7,32.0,12.9,0000.0,0024.31,0005.95,0004.29
2021-10-25 20:34:00,,0818.8,5.00,0.00,30.5,28.4,00.0,39.6,32.0,13.0,0000.0,0024.31,0005.93,0004.27
2021-10-25 20:35:00,,0818.9,5.00,0.00,30.4,28.6,00.0,39.6,32.0,13.0,0000.0,0024.00,0005.90,0004.25
2021-10-25 20:36:00,,0818.9,4.99,0.00,30.5,28.9,00.0,39.6,32.1,13.0,0000.0,0024.18,0005.91,0004.24
2021-10-25 20:37:00,,0818.9,5.00,0.00,30.5,29.0,00.0,39.6,32.1,12.9,0000.0,0024.21,0005.91,0004.23
2021-10-25 20:38:00,,0818.9,5.00,0.00,30.5,29.2,00.0,39.6,32.2,12.9,0000.0,0025.38,0005.95,0004.21
2021-10-25 20:39:00,,0818.8,5.00,0.00,30.5,29.3,00.0,39.6,32.2,12.8,0000.0,0026.57,0006.05,0004.21
2021-10-25 20:40:00,,0818.8,5.00,0.00,30.5,29.5,00.0,39.6,32.2,12.9,0000.0,0027.10,0006.08,0004.19
2021-10-25 20:41:00,,0818.8,5.00,0.00,30.5,29.5,00.0,39.6,32.3,12.8,0000.0,0025.78,0006.11,0004.19
2021-10-25 20:42:00,,0818.7,4.98,0.00,30.6,29.6,00.0,39.6,32.3,12.8,0000.0,0026.04,0006.10,0004.18
2021-10-25 20:43:00,,0818.7,5.00,0.00,30.6,29.7,00.0,39.6,32.4,12.7,0000.0,0025.42,0006.07,0004.17
2021-10-25 20:44:00,,0818.7,5.00,0.00,30.6,29.8,00.0,39.6,32.4,12.8,0000.0,0024.45,0006.11,0004.14
2021-10-25 20:45:00,,0818.7,5.01,0.00,30.6,29.8,00.0,39.6,32.4,12.8,0000.0,0024.73,0006.11,0004.14
2021-10-25 20:46:00,,0818.8,5.00,0.00,30.7,29.9,00.0,39.7,32.4,12.9,0000.0,0025.10,0006.11,0004.14
2021-10-25 20:47:00,,0818.7,4.99,0.00,30.7,29.9,00.0,39.7,32.5,12.9,0000.0,0025.95,0006.14,0004.15
2021-10-25 20:48:00,,0818.7,5.01,0.00,30.7,30.0,00.0,39.7,32.5,12.9,0000.0,0024.99,0006.16,0004.17
2021-10-25 20:49:00,,0818.8,5.00,0.00,30.8,30.0,00.0,39.7,32.5,12.9,0000.0,0024.83,0006.20,0004.17
2021-10-25 20:50:00,,0818.8,5.00,0.00,30.8,30.1,00.0,39.7,32.5,12.9,0000.0,0024.33,0006.14,0004.19
2021-10-25 20:51:00,,0818.7,4.99,0.00,30.8,30.1,00.0,39.7,32.6,12.9,0000.0,0023.53,0006.19,0004.23
2021-10-25 20:52:00,,0818.7,5.01,0.00,30.8,30.1,00.0,39.7,32.6,12.8,0000.0,0024.12,0006.25,0004.27
2021-10-25 20:53:00,,0818.7,4.99,0.00,30.9,29.8,00.0,39.8,32.6,12.9,0000.0,0024.32,0006.28,0004.30
2021-10-25 20:54:00,,0818.6,5.00,0.00,30.8,27.7,00.0,39.8,32.1,12.9,0000.0,0024.79,0006.34,0004.34
2021-10-25 20:55:00,,0818.7,5.01,0.00,30.6,26.3,00.0,39.7,31.9,13.0,0000.0,0024.94,0006.33,0004.38
2021-10-25 20:56:00,,0818.7,4.99,0.00,30.5,26.5,00.0,39.7,31.8,13.1,0000.0,0026.03,0006.33,0004.42
2021-10-25 20:57:00,,0818.7,5.00,0.00,30.4,26.9,00.0,39.6,31.8,13.2,0000.0,0026.43,0006.31,0004.47
2021-10-25 20:58:00,,0818.7,5.01,0.00,30.3,27.5,00.0,39.6,31.8,13.2,0000.0,0027.12,0006.30,0004.49
2021-10-25 20:59:00,,0818.7,4.99,0.00,30.3,27.9,00.0,39.5,31.9,13.3,0000.0,0026.57,0006.29,0004.51
